When you browse on this site, cookies collect data to enhance your experience and personalize the content and advertising you see.
Visit our Privacy Policy to learn more. By continuing to use the site, you agree to this use of cookies and data.
  • In Lithuania
  • List of Countries
  • For 7 days
  • Water Temperature
  • Satellite Maps
  • Weather Map
  • Weather Widgets
  • user-avatar
    Login

    Hourly Weather Cherneevichi

    Today, 22 April, Monday

    Time Temperature Precipitation Wind Pressure Humidity
    00:00 +6°C° 0 mm 2 mps 752 mmHg 93%
    01:00 +5°C° 0 mm 3 mps 753 mmHg 93%
    02:00 +5°C° 0 mm 3 mps 753 mmHg 94%
    03:00 +5°C° 0 mm 4 mps 753 mmHg 92%
    04:00 +5°C° 0 mm 4 mps 754 mmHg 91%
    05:00 +5°C° 0 mm 4 mps 754 mmHg 89%
    06:00 +6°C° 0 mm 4 mps 754 mmHg 82%
    07:00 +7°C° 0 mm 5 mps 755 mmHg 75%
    08:00 +9°C° 0 mm 5 mps 755 mmHg 68%
    09:00 +12°C° 0 mm 5 mps 756 mmHg 58%
    10:00 +13°C° 0 mm 6 mps 756 mmHg 49%
    11:00 +15°C° 0 mm 6 mps 756 mmHg 39%
    12:00 +15°C° 0 mm 6 mps 756 mmHg 38%
    13:00 +15°C° 0 mm 6 mps 756 mmHg 37%
    14:00 +15°C° 0 mm 6 mps 756 mmHg 35%
    15:00 +15°C° 0 mm 5 mps 756 mmHg 36%
    16:00 +15°C° 0 mm 5 mps 756 mmHg 37%
    17:00 +15°C° 0 mm 5 mps 756 mmHg 38%
    18:00 +13°C° 0 mm 4 mps 757 mmHg 42%
    19:00 +12°C° 0 mm 4 mps 757 mmHg 47%
    20:00 +10°C° 0 mm 3 mps 757 mmHg 51%
    21:00 +9°C° 0 mm 3 mps 757 mmHg 53%
    22:00 +9°C° 0 mm 3 mps 758 mmHg 54%
    23:00 +8°C° 0 mm 3 mps 758 mmHg 56%

    Tomorrow, 23 April, Tuesday

    Time Temperature Precipitation Wind Pressure Humidity
    00:00 +7°C° 0 mm 3 mps 758 mmHg 58%
    01:00 +7°C° 0 mm 3 mps 758 mmHg 60%
    02:00 +7°C° 0 mm 3 mps 758 mmHg 61%
    03:00 +5°C° 0 mm 3 mps 758 mmHg 63%
    04:00 +5°C° 0 mm 3 mps 758 mmHg 64%
    05:00 +5°C° 0 mm 3 mps 758 mmHg 65%
    06:00 +7°C° 0 mm 3 mps 758 mmHg 61%
    07:00 +8°C° 0 mm 4 mps 759 mmHg 57%
    08:00 +11°C° 0 mm 4 mps 759 mmHg 53%
    09:00 +12°C° 0 mm 5 mps 759 mmHg 47%
    10:00 +14°C° 0 mm 6 mps 759 mmHg 41%
    11:00 +15°C° 0 mm 7 mps 759 mmHg 35%
    12:00 +16°C° 0 mm 7 mps 758 mmHg 35%
    13:00 +16°C° 0 mm 6 mps 758 mmHg 35%
    14:00 +17°C° 0 mm 6 mps 758 mmHg 34%
    15:00 +17°C° 0 mm 6 mps 757 mmHg 36%
    16:00 +16°C° 0 mm 6 mps 757 mmHg 38%
    17:00 +16°C° 0 mm 6 mps 757 mmHg 39%
    18:00 +15°C° 0 mm 5 mps 757 mmHg 44%
    19:00 +13°C° 0 mm 5 mps 757 mmHg 48%
    20:00 +11°C° 0 mm 4 mps 757 mmHg 52%
    21:00 +11°C° 0 mm 4 mps 757 mmHg 54%
    22:00 +10°C° 0 mm 4 mps 757 mmHg 55%
    23:00 +10°C° 0 mm 4 mps 757 mmHg 56%

    Day after tomorrow, 24 April, Wednesday

    Time Temperature Precipitation Wind Pressure Humidity
    00:00 +8°C° 0 mm 4 mps 757 mmHg 58%
    01:00 +8°C° 0 mm 4 mps 757 mmHg 59%
    02:00 +7°C° 0 mm 4 mps 757 mmHg 61%
    03:00 +7°C° 0 mm 4 mps 757 mmHg 62%
    04:00 +7°C° 0 mm 4 mps 757 mmHg 63%
    05:00 +6°C° 0 mm 4 mps 757 mmHg 65%
    06:00 +8°C° 0 mm 5 mps 757 mmHg 61%
    07:00 +9°C° 0 mm 6 mps 757 mmHg 57%
    08:00 +11°C° 0 mm 7 mps 757 mmHg 52%
    09:00 +12°C° 0 mm 7 mps 757 mmHg 48%
    10:00 +15°C° 0 mm 8 mps 757 mmHg 44%
    11:00 +16°C° 0 mm 8 mps 757 mmHg 39%
    12:00 +17°C° 0 mm 8 mps 757 mmHg 38%
    13:00 +17°C° 0 mm 8 mps 757 mmHg 37%
    14:00 +18°C° 0 mm 8 mps 756 mmHg 35%
    15:00 +18°C° 0 mm 7 mps 756 mmHg 37%
    16:00 +18°C° 0 mm 7 mps 756 mmHg 38%
    17:00 +17°C° 0 mm 6 mps 756 mmHg 40%
    18:00 +16°C° 0 mm 6 mps 756 mmHg 44%
    19:00 +14°C° 0 mm 5 mps 756 mmHg 48%
    20:00 +12°C° 0 mm 4 mps 756 mmHg 52%
    21:00 +12°C° 0 mm 4 mps 756 mmHg 54%
    22:00 +11°C° 0 mm 4 mps 756 mmHg 55%
    23:00 +11°C° 0 mm 4 mps 756 mmHg 57%

    25 April, Thursday

    Time Temperature Precipitation Wind Pressure Humidity
    00:00 +10°C° 0 mm 5 mps 756 mmHg 58%
    01:00 +9°C° 0 mm 5 mps 756 mmHg 60%
    02:00 +9°C° 0 mm 5 mps 756 mmHg 61%
    03:00 +9°C° 0 mm 5 mps 756 mmHg 62%
    04:00 +8°C° 0 mm 5 mps 756 mmHg 63%
    05:00 +8°C° 0 mm 5 mps 756 mmHg 64%
    06:00 +9°C° 0 mm 5 mps 756 mmHg 62%
    07:00 +11°C° 0 mm 6 mps 756 mmHg 60%
    08:00 +12°C° 0 mm 7 mps 756 mmHg 58%
    09:00 +14°C° 0 mm 7 mps 756 mmHg 53%
    10:00 +16°C° 0 mm 7 mps 756 mmHg 49%
    11:00 +17°C° 0 mm 7 mps 756 mmHg 44%
    12:00 +18°C° 0 mm 7 mps 755 mmHg 43%
    13:00 +20°C° 0 mm 7 mps 755 mmHg 41%
    14:00 +21°C° 0 mm 7 mps 755 mmHg 39%
    15:00 +21°C° 0 mm 7 mps 754 mmHg 41%
    16:00 +20°C° 0 mm 6 mps 754 mmHg 42%
    17:00 +20°C° 0 mm 6 mps 754 mmHg 44%
    18:00 +19°C° 0 mm 5 mps 754 mmHg 49%
    19:00 +16°C° 0 mm 5 mps 754 mmHg 54%
    20:00 +14°C° 0 mm 4 mps 754 mmHg 59%
    21:00 +14°C° 0 mm 4 mps 754 mmHg 61%
    22:00 +13°C° 0 mm 4 mps 754 mmHg 64%
    23:00 +13°C° 0 mm 4 mps 754 mmHg 67%

    26 April, Friday

    Time Temperature Precipitation Wind Pressure Humidity
    00:00 +12°C° 0 mm 4 mps 753 mmHg 68%
    01:00 +12°C° 0 mm 4 mps 753 mmHg 70%
    02:00 +11°C° 0 mm 4 mps 753 mmHg 72%
    03:00 +11°C° 0 mm 4 mps 753 mmHg 72%
    04:00 +11°C° 0 mm 4 mps 753 mmHg 73%
    05:00 +11°C° 0 mm 4 mps 752 mmHg 74%
    06:00 +12°C° 0 mm 5 mps 752 mmHg 71%
    07:00 +13°C° 0 mm 5 mps 752 mmHg 68%
    08:00 +14°C° 0 mm 6 mps 752 mmHg 64%
    09:00 +16°C° 0 mm 6 mps 752 mmHg 61%
    10:00 +19°C° 0 mm 6 mps 751 mmHg 57%
    11:00 +20°C° 0 mm 6 mps 751 mmHg 53%
    12:00 +22°C° 0 mm 6 mps 751 mmHg 51%
    13:00 +23°C° 0 mm 6 mps 750 mmHg 49%
    14:00 +24°C° 0 mm 6 mps 750 mmHg 47%
    15:00 +24°C° 0 mm 6 mps 750 mmHg 47%
    16:00 +24°C° 0 mm 6 mps 749 mmHg 48%
    17:00 +25°C° 0 mm 5 mps 749 mmHg 49%
    18:00 +22°C° 0 mm 5 mps 749 mmHg 55%
    19:00 +20°C° 0 mm 5 mps 749 mmHg 60%
    20:00 +18°C° 0 mm 4 mps 749 mmHg 65%
    21:00 +18°C° 0 mm 4 mps 749 mmHg 65%
    22:00 +17°C° 0 mm 4 mps 749 mmHg 66%
    23:00 +15°C° 0 mm 5 mps 749 mmHg 66%

    27 April, Saturday

    Time Temperature Precipitation Wind Pressure Humidity
    00:00 +15°C° 0 mm 4 mps 748 mmHg 67%
    01:00 +14°C° 0 mm 4 mps 748 mmHg 68%
    02:00 +13°C° 0 mm 3 mps 748 mmHg 68%
    03:00 +13°C° 0.1 mm 3 mps 748 mmHg 69%
    04:00 +12°C° 0.1 mm 4 mps 748 mmHg 69%
    05:00 +12°C° 0.1 mm 4 mps 748 mmHg 69%
    06:00 +13°C° 0 mm 4 mps 748 mmHg 67%
    07:00 +14°C° 0 mm 4 mps 748 mmHg 65%
    08:00 +15°C° 0 mm 4 mps 748 mmHg 63%
    09:00 +18°C° 0 mm 4 mps 748 mmHg 60%
    10:00 +20°C° 0 mm 4 mps 748 mmHg 56%
    11:00 +21°C° 0 mm 4 mps 748 mmHg 52%
    12:00 +22°C° 0 mm 4 mps 748 mmHg 50%
    13:00 +23°C° 0 mm 4 mps 748 mmHg 48%
    14:00 +25°C° 0 mm 4 mps 748 mmHg 46%
    15:00 +25°C° 0.2 mm 4 mps 748 mmHg 49%
    16:00 +25°C° 0.2 mm 3 mps 748 mmHg 52%
    17:00 +24°C° 0.2 mm 3 mps 748 mmHg 54%
    18:00 +21°C° 1.1 mm 3 mps 748 mmHg 64%
    19:00 +19°C° 1.1 mm 3 mps 748 mmHg 75%
    20:00 +17°C° 1.1 mm 3 mps 749 mmHg 85%
    21:00 +17°C° 0.1 mm 3 mps 749 mmHg 88%
    22:00 +16°C° 0.1 mm 3 mps 749 mmHg 90%
    23:00 +16°C° 0.1 mm 3 mps 749 mmHg 93%
    Show more